| time (UTC) | temp F | wind direction | speed MPH | gust MPH | rain 1hr in | rain 24hr in | rain mn in | humidity % | barometer mb |
| 20260504024505 | 59 | 155 | 5.0 | 8.0 | 0.00 | 0.00 | 0.00 | 61 | 1011.4 |
| 20260504023002 | 60 | 157 | 5.0 | 10.0 | 0.00 | 0.00 | 0.00 | 60 | 1011.4 |
| 20260504021502 | 61 | 155 | 4.0 | 9.0 | 0.00 | 0.00 | 0.00 | 56 | 1011.2 |
| 20260504020001 | 61 | 155 | 5.0 | 7.0 | 0.00 | 0.00 | 0.00 | 57 | 1011.1 |
| 20260504014600 | 61 | 155 | 4.0 | 8.0 | 0.00 | 0.00 | 0.00 | 56 | 1011.0 |
| 20260504013100 | 62 | 155 | 4.0 | 10.0 | 0.00 | 0.00 | 0.00 | 55 | 1011.0 |
| 20260504011559 | 62 | 155 | 5.0 | 9.0 | 0.00 | 0.00 | 0.00 | 54 | 1010.9 |
| 20260504010058 | 63 | 153 | 6.0 | 10.0 | 0.00 | 0.00 | 0.00 | 53 | 1011.0 |
| 20260504004557 | 64 | 155 | 7.0 | 12.0 | 0.00 | 0.00 | 0.00 | 51 | 1011.1 |
| 20260504003055 | 65 | 150 | 7.0 | 12.0 | 0.00 | 0.00 | 0.00 | 49 | 1011.2 |
| 20260504001553 | 66 | 156 | 7.0 | 12.0 | 0.00 | 0.00 | 0.00 | 47 | 1011.4 |
| 20260504000129 | 66 | 155 | 3.0 | 12.0 | 0.00 | 0.00 | 0.00 | 46 | 1011.8 |
| 20260503234552 | 67 | 154 | 9.0 | 15.0 | 0.00 | 0.00 | 0.00 | 45 | 1011.9 |
| 20260503233050 | 67 | 155 | 2.0 | 12.0 | 0.00 | 0.00 | 0.00 | 45 | 1012.0 |
| 20260503231550 | 67 | 152 | 10.0 | 19.0 | 0.00 | 0.00 | 0.00 | 44 | 1011.9 |
| 20260503230053 | 67 | 151 | 12.0 | 25.0 | 0.00 | 0.00 | 0.00 | 46 | 1011.7 |
| 20260503224547 | 67 | 154 | 13.0 | 21.0 | 0.00 | 0.00 | 0.00 | 44 | 1011.7 |
| 20260503223046 | 67 | 157 | 16.0 | 23.0 | 0.00 | 0.00 | 0.00 | 45 | 1011.5 |
| 20260503221544 | 67 | 154 | 17.0 | 26.0 | 0.00 | 0.00 | 0.00 | 44 | 1011.8 |
| 20260503220042 | 67 | 157 | 18.0 | 27.0 | 0.00 | 0.00 | 0.00 | 46 | 1011.8 |
| 20260503214539 | 66 | 155 | 17.0 | 28.0 | 0.00 | 0.00 | 0.00 | 47 | 1011.9 |
| 20260503213037 | 66 | 155 | 21.0 | 28.0 | 0.00 | 0.00 | 0.00 | 46 | 1012.4 |
| 20260503211533 | 66 | 153 | 20.0 | 30.0 | 0.00 | 0.00 | 0.00 | 48 | 1012.6 |
| 20260503210030 | 66 | 153 | 12.0 | 29.0 | 0.00 | 0.00 | 0.00 | 49 | 1013.1 |
| 20260503204528 | 65 | 156 | 16.0 | 30.0 | 0.00 | 0.00 | 0.00 | 51 | 1013.4 |
| 20260503203032 | 65 | 153 | 19.0 | 28.0 | 0.00 | 0.00 | 0.00 | 48 | 1014.2 |
| 20260503201523 | 65 | 155 | 12.0 | 25.0 | 0.00 | 0.00 | 0.00 | 51 | 1014.2 |
| 20260503200024 | 64 | 153 | 11.0 | 25.0 | 0.00 | 0.00 | 0.00 | 49 | 1014.8 |
| 20260503194518 | 65 | 155 | 12.0 | 25.0 | 0.00 | 0.00 | 0.00 | 52 | 1015.3 |
| 20260503193015 | 64 | 148 | 16.0 | 25.0 | 0.00 | 0.00 | 0.00 | 52 | 1015.6 |
| 20260503191512 | 64 | 155 | 13.0 | 22.0 | 0.00 | 0.00 | 0.00 | 50 | 1016.0 |
| 20260503190009 | 63 | 154 | 15.0 | 32.0 | 0.00 | 0.00 | 0.00 | 51 | 1016.1 |
| 20260503184512 | 63 | 156 | 18.0 | 24.0 | 0.00 | 0.00 | 0.00 | 48 | 1016.4 |
| 20260503183005 | 63 | 153 | 16.0 | 26.0 | 0.00 | 0.00 | 0.00 | 49 | 1016.7 |
| 20260503181505 | 63 | 153 | 15.0 | 27.0 | 0.00 | 0.00 | 0.00 | 53 | 1017.1 |
| 20260503180101 | 63 | 155 | 12.0 | 20.0 | 0.00 | 0.00 | 0.00 | 51 | 1017.4 |
| 20260503174557 | 62 | 148 | 14.0 | 24.0 | 0.00 | 0.00 | 0.00 | 52 | 1017.9 |
| 20260503173055 | 61 | 150 | 15.0 | 25.0 | 0.00 | 0.00 | 0.00 | 53 | 1018.3 |
| 20260503171609 | 61 | 154 | 12.0 | 22.0 | 0.00 | 0.00 | 0.00 | 55 | 1018.7 |
| 20260503081507 | 43 | 156 | 3.0 | 5.0 | 0.00 | 0.01 | 0.00 | 81 | 1020.1 |
| 20260503071505 | 43 | 156 | 3.0 | 5.0 | 0.00 | 0.01 | 0.00 | 76 | 1020.0 |
| 20260503054559 | 43 | 158 | 0.0 | 0.0 | 0.00 | 0.01 | 0.00 | 83 | 1020.4 |
| 20260503053049 | 42 | 158 | 0.0 | 0.0 | 0.00 | 0.01 | 0.00 | 85 | 1020.4 |
| 20260503051548 | 42 | 158 | 0.0 | 0.0 | 0.00 | 0.01 | 0.00 | 85 | 1020.4 |
| 20260503050048 | 42 | 159 | 0.0 | 0.0 | 0.00 | 0.01 | 0.00 | 85 | 1020.3 |
| 20260503044551 | 41 | 157 | 0.0 | 0.0 | 0.00 | 0.01 | 0.01 | 87 | 1020.4 |
| 20260503043048 | 41 | 162 | 0.0 | 0.0 | 0.00 | 0.01 | 0.01 | 89 | 1020.4 |
| 20260503041545 | 42 | 162 | 0.0 | 0.0 | 0.00 | 0.01 | 0.01 | 86 | 1020.4 |
| 20260503040042 | 42 | 162 | 0.0 | 0.0 | 0.00 | 0.01 | 0.01 | 85 | 1020.3 |
| 20260503034540 | 42 | 162 | 0.0 | 0.0 | 0.00 | 0.01 | 0.01 | 88 | 1020.3 |
| 20260503033038 | 43 | 162 | 0.0 | 0.0 | 0.00 | 0.01 | 0.01 | 85 | 1020.3 |
| 20260503031537 | 43 | 162 | 0.0 | 0.0 | 0.00 | 0.01 | 0.01 | 85 | 1020.3 |
| 20260503030034 | 44 | 162 | 0.0 | 0.0 | 0.00 | 0.01 | 0.01 | 82 | 1020.3 |